FW5435 Weather Reports


Display with metric or nautical units.
time (UTC)temp
F
wind
direction
speed
MPH
gust
MPH
rain 1hr
in
rain 24hr
in
rain mn
in
humidity
%
barometer
mb
20260510173048 82 269 1.0 7.0 0.00 0.00 0.00 35 1014.0
20260510172534 82 0 1.0 6.0 0.00 0.00 0.00 38 1014.0
20260510172034 82 0 2.0 6.0 0.00 0.00 0.00 35 1014.0
20260510171547 81 0 0.0 3.0 0.00 0.00 0.00 44 1014.0
20260510171033 81 0 0.0 3.0 0.00 0.00 0.00 44 1014.1
20260510170534 80 267 0.0 6.0 0.00 0.00 0.00 42 1014.0
20260510170044 80 0 1.0 6.0 0.00 0.00 0.00 40 1014.1
20260510165535 80 272 1.0 6.0 0.00 0.00 0.00 41 1014.1
20260510165034 80 263 1.0 6.0 0.00 0.00 0.00 42 1014.1
20260510164544 80 0 0.0 2.0 0.00 0.00 0.00 46 1014.3
20260510164034 79 0 0.0 2.0 0.00 0.00 0.00 45 1014.2
20260510163533 79 0 0.0 4.0 0.00 0.00 0.00 48 1014.3
20260510163043 79 0 1.0 4.0 0.00 0.00 0.00 47 1014.3
20260510162537 78 272 0.0 4.0 0.00 0.00 0.00 45 1014.3
20260510162034 78 0 1.0 4.0 0.00 0.00 0.00 47 1014.3
20260510161549 78 0 0.0 2.0 0.00 0.00 0.00 47 1014.4
20260510161034 78 0 0.0 3.0 0.00 0.00 0.00 50 1014.4
20260510160532 77 0 1.0 3.0 0.00 0.00 0.00 51 1014.4
20260510160045 77 270 0.0 3.0 0.00 0.00 0.00 53 1014.4
20260510155533 77 0 0.0 6.0 0.00 0.00 0.00 52 1014.5
20260510155034 76 0 0.0 6.0 0.00 0.00 0.00 54 1014.7
20260510154546 76 261 0.0 4.0 0.00 0.00 0.00 55 1014.8
20260510154034 75 0 0.0 3.0 0.00 0.00 0.00 59 1015.0
20260510153533 75 0 0.0 6.0 0.00 0.00 0.00 61 1014.9
20260510153050 75 269 0.0 6.0 0.00 0.00 0.00 61 1014.7
20260510153033 74 0 0.0 2.0 0.00 0.00 0.00 63 1014.8
20260510143052 69 0 0.0 1.0 0.00 0.00 0.00 72 1014.6
20260510142537 68 0 0.0 1.0 0.00 0.00 0.00 74 1014.4
20260510142035 68 0 0.0 0.0 0.00 0.00 0.00 75 1014.6
20260510141548 67 0 0.0 0.0 0.00 0.00 0.00 77 1014.4
20260510141033 67 0 0.0 1.0 0.00 0.00 0.00 80 1014.6
20260510140533 67 0 0.0 1.0 0.00 0.00 0.00 81 1014.6
20260510140045 66 0 0.0 1.0 0.00 0.00 0.00 83 1014.6
20260510135533 66 0 0.0 0.0 0.00 0.00 0.00 84 1014.6
20260510135035 65 0 0.0 3.0 0.00 0.00 0.00 86 1014.6
20260510134549 65 0 0.0 3.0 0.00 0.00 0.00 89 1014.7
20260510134033 64 267 0.0 2.0 0.00 0.00 0.00 90 1014.5
20260510133533 64 0 0.0 0.0 0.00 0.00 0.00 92 1014.5
20260510133042 64 0 0.0 2.0 0.00 0.00 0.00 93 1014.4
20260510132536 63 0 0.0 2.0 0.00 0.00 0.00 96 1014.5
20260510132036 63 0 0.0 2.0 0.00 0.00 0.00 97 1014.6
20260510131541 63 0 0.0 3.0 0.00 0.00 0.00 97 1014.5
20260510131033 63 0 0.0 3.0 0.00 0.00 0.00 97 1014.4
20260510130533 62 0 0.0 1.0 0.00 0.00 0.00 97 1014.3
20260510130042 62 0 0.0 1.0 0.00 0.00 0.00 97 1014.2
20260510125536 62 0 0.0 0.0 0.00 0.00 0.00 97 1014.1
20260510125032 62 0 0.0 0.0 0.00 0.00 0.00 97 1014.1
20260510124545 61 0 0.0 0.0 0.00 0.00 0.00 97 1014.1
20260510124034 61 0 0.0 0.0 0.00 0.00 0.00 97 1014.1
20260510123534 60 0 0.0 0.0 0.00 0.00 0.00 97 1014.0
20260510123051 60 0 0.0 0.0 0.00 0.00 0.00 97 1014.1
20260510122534 60 0 0.0 0.0 0.00 0.00 0.00 96 1014.1
20260510122035 59 0 0.0 0.0 0.00 0.00 0.00 96 1014.0
20260510121548 59 0 0.0 0.0 0.00 0.00 0.00 96 1013.9
20260510121036 59 0 0.0 0.0 0.00 0.00 0.00 96 1013.9
20260510120536 59 0 0.0 0.0 0.00 0.00 0.00 96 1014.0
20260510120042 59 0 0.0 0.0 0.00 0.00 0.00 96 1013.9
20260510115536 59 0 0.0 0.0 0.00 0.00 0.00 96 1013.9
20260510115036 58 0 0.0 0.0 0.00 0.00 0.00 96 1013.8
20260510114553 58 0 0.0 0.0 0.00 0.00 0.00 96 1013.8
20260510114035 58 0 0.0 0.0 0.00 0.00 0.00 96 1013.7
20260510113535 58 0 0.0 0.0 0.00 0.00 0.00 96 1013.7
20260510113045 58 0 0.0 0.0 0.00 0.00 0.00 96 1013.5
20260510112535 57 0 0.0 0.0 0.00 0.00 0.00 95 1013.6
20260510112035 57 0 0.0 0.0 0.00 0.00 0.00 95 1013.5
20260510111546 57 0 0.0 0.0 0.00 0.00 0.00 95 1013.4
20260510111034 57 0 0.0 0.0 0.00 0.00 0.00 95 1013.3
20260510110536 57 0 0.0 0.0 0.00 0.00 0.00 95 1013.3
20260510110045 57 0 0.0 0.0 0.00 0.00 0.00 95 1013.1
20260510105536 57 0 0.0 0.0 0.00 0.00 0.00 95 1013.1
20260510105035 57 0 0.0 0.0 0.00 0.00 0.00 94 1013.0
20260510104546 57 0 0.0 0.0 0.00 0.00 0.00 94 1013.0
20260510104035 57 0 0.0 0.0 0.00 0.00 0.00 95 1013.0
20260510103535 57 0 0.0 0.0 0.00 0.00 0.00 95 1013.0
20260510103048 57 0 0.0 0.0 0.00 0.00 0.00 94 1012.9
20260510102535 57 0 0.0 0.0 0.00 0.00 0.00 94 1012.7
20260510102036 57 0 0.0 0.0 0.00 0.00 0.00 94 1012.7
20260510101550 57 0 0.0 0.0 0.00 0.00 0.00 94 1012.5
20260510101036 57 0 0.0 0.0 0.00 0.00 0.00 94 1012.4
20260510100537 57 0 0.0 0.0 0.00 0.00 0.00 94 1012.3
20260510100108 57 0 0.0 0.0 0.00 0.00 0.00 94 1012.3
20260510095535 57 0 0.0 0.0 0.00 0.00 0.00 94 1012.3
20260510095036 57 0 0.0 0.0 0.00 0.00 0.00 94 1012.0
20260510094545 57 0 0.0 0.0 0.00 0.00 0.00 94 1012.2
20260510094034 57 0 0.0 0.0 0.00 0.00 0.00 94 1012.1
20260510093536 57 0 0.0 0.0 0.00 0.00 0.00 94 1011.9
20260510093049 57 0 0.0 0.0 0.00 0.00 0.00 94 1012.1
20260510092534 57 0 0.0 0.0 0.00 0.00 0.00 94 1012.0
20260510092034 57 0 0.0 0.0 0.00 0.00 0.00 94 1011.9
20260510091541 57 0 0.0 0.0 0.00 0.00 0.00 94 1011.9
20260510091034 57 0 0.0 0.0 0.00 0.00 0.00 94 1011.9
20260510090535 57 0 0.0 0.0 0.00 0.00 0.00 94 1011.8
20260510090045 57 0 0.0 0.0 0.00 0.00 0.00 94 1011.8
20260510085536 57 0 0.0 0.0 0.00 0.00 0.00 94 1011.8
20260510085035 57 0 0.0 0.0 0.00 0.00 0.00 94 1011.8
20260510084542 57 0 0.0 0.0 0.00 0.00 0.00 94 1011.7
20260510084035 57 0 0.0 0.0 0.00 0.00 0.00 94 1011.7
20260510083535 57 0 0.0 0.0 0.00 0.00 0.00 94 1011.7
20260510083052 57 0 0.0 0.0 0.00 0.00 0.00 94 1011.7
20260510082534 57 0 0.0 0.0 0.00 0.00 0.00 94 1011.5
20260510082035 57 0 0.0 0.0 0.00 0.00 0.00 94 1011.5
20260510081547 57 0 0.0 0.0 0.00 0.00 0.00 94 1011.5
20260510081035 57 0 0.0 0.0 0.00 0.00 0.00 94 1011.5
20260510080534 57 0 0.0 0.0 0.00 0.00 0.00 94 1011.5
20260510080044 57 0 0.0 0.0 0.00 0.00 0.00 94 1011.4
20260510075538 57 0 0.0 0.0 0.00 0.00 0.00 94 1011.4
20260510075035 57 0 0.0 0.0 0.00 0.00 0.00 94 1011.4
20260510074544 57 0 0.0 0.0 0.00 0.00 0.00 94 1011.4
20260510074035 57 0 0.0 0.0 0.00 0.00 0.00 94 1011.4
20260510073534 57 0 0.0 0.0 0.00 0.00 0.00 93 1011.3
20260510073041 57 0 0.0 0.0 0.00 0.00 0.00 93 1011.2
20260510072534 57 0 0.0 0.0 0.00 0.00 0.00 93 1011.2
20260510072037 57 0 0.0 0.0 0.00 0.00 0.00 93 1011.2
20260510071553 58 0 0.0 0.0 0.00 0.00 0.00 93 1011.1
20260510071034 58 0 0.0 0.0 0.00 0.00 0.00 93 1011.2
20260510070535 58 0 0.0 0.0 0.00 0.00 0.00 93 1011.2
20260510070051 58 0 0.0 0.0 0.00 0.00 0.00 94 1011.3
20260510065535 58 0 0.0 0.0 0.00 0.00 0.00 94 1011.3
20260510065035 58 0 0.0 0.0 0.00 0.00 0.00 94 1011.4
20260510064544 58 0 0.0 0.0 0.00 0.00 0.00 93 1011.4
20260510064035 58 0 0.0 0.0 0.00 0.00 0.00 94 1011.3
20260510063535 58 0 0.0 0.0 0.00 0.00 0.00 93 1011.3
20260510063050 58 0 0.0 0.0 0.00 0.00 0.00 93 1011.2
20260510062534 58 0 0.0 0.0 0.00 0.00 0.00 94 1011.2
20260510062034 58 0 0.0 0.0 0.00 0.00 0.00 94 1011.1
20260510061549 58 0 0.0 0.0 0.00 0.00 0.00 93 1011.0
20260510061035 58 0 0.0 0.0 0.00 0.00 0.00 93 1011.0
20260510060538 58 0 0.0 0.0 0.00 0.00 0.00 93 1011.2
20260510060042 58 0 0.0 0.0 0.00 0.00 0.00 93 1011.2
20260510055535 58 0 0.0 0.0 0.00 0.00 0.00 93 1011.3
20260510055034 58 0 0.0 0.0 0.00 0.00 0.00 93 1011.3
20260510054549 58 0 0.0 0.0 0.00 0.00 0.00 93 1011.4
20260510054037 58 0 0.0 0.0 0.00 0.00 0.00 93 1011.4
20260510053534 58 0 0.0 0.0 0.00 0.00 0.00 93 1011.5
20260510053043 58 0 0.0 0.0 0.00 0.00 0.00 93 1011.5
20260510052536 58 0 0.0 0.0 0.00 0.00 0.00 93 1011.7
20260510052035 58 0 0.0 0.0 0.00 0.00 0.00 93 1011.6
20260510051547 58 0 0.0 0.0 0.00 0.00 0.00 93 1011.7
20260510051035 58 0 0.0 0.0 0.00 0.00 0.00 93 1011.8
20260510050534 58 0 0.0 0.0 0.00 0.00 0.00 93 1011.7
20260510050048 58 0 0.0 0.0 0.00 0.00 0.00 93 1011.6
20260510045535 58 0 0.0 0.0 0.00 0.00 0.00 93 1011.7
20260510045035 58 0 0.0 0.0 0.00 0.00 0.00 93 1011.8
20260510044546 58 0 0.0 0.0 0.00 0.00 0.00 93 1011.9
20260510044038 58 0 0.0 0.0 0.00 0.00 0.00 93 1011.9
20260510043534 58 0 0.0 0.0 0.00 0.00 0.00 93 1011.8
20260510043053 59 0 0.0 0.0 0.00 0.00 0.00 92 1011.7
20260510042535 59 0 0.0 0.0 0.00 0.00 0.00 93 1011.8
20260510042034 59 0 0.0 0.0 0.00 0.00 0.00 93 1011.8
20260510041547 59 0 0.0 0.0 0.00 0.00 0.00 93 1011.8
20260510041034 59 0 0.0 0.0 0.00 0.00 0.00 93 1011.8
20260510040534 59 0 0.0 0.0 0.00 0.00 0.00 93 1011.8
20260510040055 59 0 0.0 0.0 0.00 0.00 0.00 92 1011.8
20260510035534 59 0 0.0 0.0 0.00 0.00 0.00 92 1011.6
20260510035035 59 0 0.0 0.0 0.00 0.00 0.00 92 1011.6
20260510034547 59 0 0.0 0.0 0.00 0.00 0.00 92 1011.5
20260510034035 59 0 0.0 0.0 0.00 0.00 0.00 92 1011.6
20260510033534 59 0 0.0 0.0 0.00 0.00 0.00 92 1011.7
20260510033111 59 0 0.0 0.0 0.00 0.00 0.00 92 1011.6
20260510032535 60 0 0.0 0.0 0.00 0.00 0.00 92 1011.6
20260510032035 60 0 0.0 0.0 0.00 0.00 0.00 92 1011.5
20260510031551 60 0 0.0 0.0 0.00 0.00 0.00 92 1011.4
20260510031035 60 0 0.0 0.0 0.00 0.00 0.00 92 1011.4
20260510030535 60 0 0.0 0.0 0.00 0.00 0.00 92 1011.6
20260510030042 60 0 0.0 0.0 0.00 0.00 0.00 92 1011.5
20260510025534 60 0 0.0 0.0 0.00 0.00 0.00 92 1011.4
20260510025035 60 0 0.0 0.0 0.00 0.00 0.00 92 1011.4
20260510024554 60 0 0.0 0.0 0.00 0.00 0.00 92 1011.4
20260510024035 60 0 0.0 0.0 0.00 0.00 0.00 92 1011.5
20260510023535 60 0 0.0 0.0 0.00 0.00 0.00 92 1011.4
20260510023044 61 0 0.0 0.0 0.00 0.00 0.00 92 1011.3
20260510022535 61 0 0.0 0.0 0.00 0.00 0.00 92 1011.4
20260510022036 61 0 0.0 0.0 0.00 0.00 0.00 91 1011.3
20260510021543 61 0 0.0 0.0 0.00 0.00 0.00 91 1011.3
20260510021034 61 0 0.0 0.0 0.00 0.00 0.00 91 1011.3
20260510020535 61 0 0.0 0.0 0.00 0.00 0.00 91 1011.2
20260510020050 62 0 0.0 0.0 0.00 0.00 0.00 91 1011.2
20260510015534 62 0 0.0 0.0 0.00 0.00 0.00 91 1011.2
20260510015034 62 0 0.0 0.0 0.00 0.00 0.00 91 1011.2
20260510014545 62 0 0.0 0.0 0.00 0.00 0.00 90 1011.1
20260510014036 62 0 0.0 0.0 0.00 0.00 0.00 91 1010.9
20260510013535 62 0 0.0 0.0 0.00 0.00 0.00 91 1010.8
20260510013052 63 0 0.0 0.0 0.00 0.00 0.00 90 1010.8
20260510012534 63 0 0.0 0.0 0.00 0.00 0.00 90 1010.7
20260510012034 63 0 0.0 0.0 0.00 0.00 0.00 90 1010.6
20260510011554 63 0 0.0 0.0 0.00 0.00 0.00 90 1010.4
20260510011035 64 0 0.0 0.0 0.00 0.00 0.00 90 1010.4
20260510010535 64 0 0.0 0.0 0.00 0.00 0.00 90 1010.3
20260510010046 64 0 0.0 0.0 0.00 0.00 0.00 89 1010.3
20260510005534 64 0 0.0 0.0 0.00 0.00 0.00 89 1010.3
20260510005036 64 0 0.0 0.0 0.00 0.00 0.00 88 1010.2
20260510004548 65 0 0.0 0.0 0.00 0.00 0.00 88 1010.2
20260510004034 65 0 0.0 0.0 0.00 0.00 0.00 88 1010.2
20260510003535 66 0 0.0 0.0 0.00 0.00 0.00 87 1010.1
20260510003103 66 0 0.0 0.0 0.00 0.00 0.00 87 1010.2
20260510002534 66 0 0.0 0.0 0.00 0.00 0.00 86 1010.1
20260510002034 67 0 0.0 0.0 0.00 0.00 0.00 85 1010.2
20260510001549 67 0 0.0 0.0 0.00 0.00 0.00 85 1010.2
20260510001034 68 0 0.0 0.0 0.00 0.00 0.00 84 1010.2
20260510000536 68 0 0.0 0.0 0.00 0.00 0.00 82 1010.2
20260510000050 69 0 0.0 0.0 0.00 0.00 0.00 83 1010.0
20260509235534 69 0 0.0 0.0 0.00 0.00 0.00 82 1010.0
20260509235034 69 0 0.0 0.0 0.00 0.00 0.00 82 1010.0
20260509234559 70 0 0.0 0.0 0.00 0.00 0.00 81 1010.0
20260509234034 70 0 0.0 0.0 0.00 0.00 0.00 81 1009.7
20260509233533 71 0 0.0 0.0 0.00 0.00 0.00 81 1009.6
20260509233044 71 0 0.0 0.0 0.00 0.00 0.00 80 1009.6
20260509232534 71 0 0.0 0.0 0.00 0.00 0.00 79 1009.6
20260509232034 72 0 0.0 0.0 0.00 0.00 0.00 79 1009.6
20260509231552 72 0 0.0 0.0 0.00 0.00 0.00 78 1009.5
20260509231034 72 0 0.0 0.0 0.00 0.00 0.00 78 1009.4
20260509230534 72 0 0.0 1.0 0.00 0.00 0.00 77 1009.3
20260509230055 72 0 0.0 2.0 0.00 0.00 0.00 75 1009.3
20260509225534 72 0 0.0 4.0 0.00 0.00 0.00 75 1009.3
20260509225033 72 0 0.0 4.0 0.00 0.00 0.00 75 1009.1
20260509224544 73 0 1.0 4.0 0.00 0.00 0.00 75 1009.1
20260509224034 73 257 0.0 4.0 0.00 0.00 0.00 74 1009.0
20260509223534 73 271 0.0 6.0 0.00 0.00 0.00 74 1009.2
20260509223041 73 259 1.0 6.0 0.00 0.00 0.00 73 1009.1
20260509222533 73 0 2.0 7.0 0.00 0.00 0.00 73 1009.1
20260509222035 73 0 1.0 7.0 0.00 0.00 0.00 74 1009.2
20260509221546 73 265 2.0 7.0 0.00 0.00 0.00 73 1009.3
20260509221035 73 263 1.0 4.0 0.00 0.00 0.00 73 1009.3
20260509220533 73 0 1.0 4.0 0.00 0.00 0.00 74 1009.3
20260509220043 73 262 1.0 4.0 0.00 0.00 0.00 74 1009.3
20260509215534 72 0 0.0 6.0 0.00 0.00 0.00 74 1009.3
20260509215034 72 0 1.0 6.0 0.00 0.00 0.00 73 1009.3
20260509214546 72 0 2.0 6.0 0.00 0.00 0.00 73 1009.2
20260509214036 72 0 1.0 7.0 0.00 0.00 0.00 74 1009.3
20260509213534 72 262 2.0 7.0 0.00 0.00 0.00 73 1009.2
20260509213046 72 0 1.0 8.0 0.00 0.00 0.00 74 1009.2
20260509212536 72 268 3.0 8.0 0.00 0.00 0.00 73 1009.1
20260509212033 72 275 2.0 7.0 0.00 0.00 0.00 73 1009.1
20260509211546 72 267 1.0 6.0 0.00 0.00 0.00 73 1009.1
20260509211033 72 274 1.0 6.0 0.00 0.00 0.00 73 1008.9
20260509210535 72 270 2.0 6.0 0.00 0.00 0.00 73 1009.1
20260509210051 72 259 0.0 6.0 0.00 0.00 0.00 75 1009.0
20260509205534 71 275 0.0 8.0 0.00 0.00 0.00 75 1009.1
20260509205033 71 0 2.0 8.0 0.00 0.00 0.00 74 1009.1
20260509204546 71 0 1.0 6.0 0.00 0.00 0.00 74 1009.3
20260509204034 71 263 0.0 7.0 0.00 0.00 0.00 75 1009.4
20260509203533 71 272 1.0 7.0 0.00 0.00 0.00 73 1009.2
20260509203043 71 269 1.0 6.0 0.00 0.00 0.00 74 1009.2
20260509202535 71 271 0.0 3.0 0.00 0.00 0.00 73 1009.3
20260509202036 71 0 1.0 3.0 0.00 0.00 0.00 74 1009.2
20260509201543 71 0 0.0 3.0 0.00 0.00 0.00 75 1009.3
20260509201035 71 271 0.0 2.0 0.00 0.00 0.00 75 1009.3
20260509200538 70 271 0.0 6.0 0.00 0.00 0.00 75 1009.4
20260509200052 70 271 2.0 6.0 0.00 0.00 0.00 74 1009.6
20260509195536 70 271 0.0 4.0 0.00 0.00 0.00 74 1009.6
20260509195035 70 0 0.0 6.0 0.00 0.00 0.00 75 1009.6
20260509194547 70 0 2.0 8.0 0.00 0.00 0.00 73 1009.7
20260509194035 70 258 2.0 8.0 0.00 0.00 0.00 73 1009.8
20260509193536 71 258 1.0 4.0 0.00 0.00 0.00 73 1009.8
20260509193049 71 0 1.0 7.0 0.00 0.00 0.00 73 1009.8
20260509192536 71 271 1.0 8.0 0.00 0.00 0.00 72 1009.9
20260509192036 71 272 2.0 9.0 0.00 0.00 0.00 71 1010.0
20260509191546 71 265 3.0 9.0 0.00 0.00 0.00 70 1010.0
20260509191040 72 268 2.0 9.0 0.00 0.00 0.00 69 1009.9
20260509190535 72 274 1.0 7.0 0.00 0.00 0.00 68 1009.9
20260509190044 73 265 2.0 7.0 0.00 0.00 0.00 66 1009.9
20260509185536 74 0 1.0 9.0 0.00 0.00 0.00 66 1009.8
20260509185036 74 0 1.0 9.0 0.00 0.00 0.00 68 1009.7
20260509184547 74 261 2.0 9.0 0.00 0.00 0.00 66 1009.8
20260509184035 74 267 3.0 9.0 0.00 0.00 0.00 65 1009.8
20260509183537 74 262 2.0 9.0 0.00 0.00 0.00 64 1009.7
20260509183104 74 273 1.0 9.0 0.00 0.00 0.00 66 1009.7
20260509182537 73 269 3.0 10.0 0.00 0.00 0.00 66 1009.8
20260509182038 73 274 1.0 10.0 0.00 0.00 0.00 66 1009.9
20260509181601 72 265 4.0 10.0 0.00 0.00 0.00 64 1010.0
20260509181035 72 278 0.0 8.0 0.00 0.00 0.00 66 1010.3
20260509180535 71 259 2.0 8.0 0.00 0.00 0.00 64 1010.4
20260509180050 72 269 3.0 9.0 0.00 0.00 0.00 64 1010.6
20260509175536 72 269 4.0 9.0 0.00 0.00 0.00 62 1010.6
20260509175035 73 265 3.0 8.0 0.00 0.00 0.00 62 1010.6
20260509174550 72 275 2.0 8.0 0.00 0.00 0.00 64 1010.7
20260509174037 72 268 2.0 8.0 0.00 0.00 0.00 64 1010.6
20260509173535 72 265 1.0 9.0 0.00 0.00 0.00 65 1010.6